{"data":{"norad_id":63927,"epoch":"2026-05-25T04:00:03.998880Z","epoch_age_seconds":50867,"freshness":"FRESH","line1":"1 63927U 25098B   26145.16671295  .00028555  00000+0  23910-2 0  9997","line2":"2 63927  70.0009  81.4744 0003084 277.9871  16.2418 14.98332800  5756","mean_motion":14.983328,"eccentricity":0.0003084,"inclination_deg":70.0009,"raan_deg":81.4744,"arg_perigee_deg":277.9871,"mean_anomaly_deg":16.2418,"bstar":0.002391,"rev_number":575,"period_min":96.106819526343,"perigee_km":569.90379537167,"apogee_km":574.19066900608,"semimajor_km":6950.1842321889,"source":"CELESTRAK","updated_at":"2026-05-25T13:38:20.182354Z"}}